Regional Weather Roundup
Issued by NWS

Home | Current Version | Previous Version | Text Only | Print | Product List | Glossary Off
Versions: 1 2 3 4 5 6 7 8 9 10 11 12 13 14 15 16 17 18 19 20 21 22 23 24 25 26 27 28 29 30 31 32 33 34 35 36 37 38 39 40 41 42 43 44 45 46 47 48 49 50

084
ASUS43 KIND 210110
RWRIN

WEATHER ROUNDUP FOR INDIANA
NATIONAL WEATHER SERVICE INDIANAPOLIS IN
900 PM EDT WED SEP 20 2017

NOTE: "FAIR" INDICATES FEW OR NO CLOUDS BELOW 12,000 FEET WITH NO
SIGNIFICANT WEATHER AND/OR OBSTRUCTIONS TO VISIBILITY.

* - STATION DOES NOT REPORT WEATHER SUCH AS PRECIPITATION OR FOG.

+ - STATION NOT QUALITY CONTROLLED BY THE NATIONAL WEATHER SERVICE.
    USE DATA WITH CAUTION...ESPECIALLY DEWPOINT AND RELATIVE
    HUMIDITY OBSERVATIONS.

INZ001>003-010>013-019-020-210200-
NORTHWEST INDIANA

CITY           SKY/WX    TMP DP  RH WIND       PRES   REMARKS
GARY /AIRPORT/ PTCLDY    84  64  51 SE6       29.88S
KNOX *+        CLEAR     77  68  73 S7        29.92S
LA PORTE +     CLEAR     76  69  78 S5        29.93R
MICHIGAN CITY+ CLEAR     77  68  73 S3        29.91S
MONTICELLO +   CLEAR     82  67  61 S6        29.92S
RENSSELAER +   CLEAR     79  63  57 S7        29.91S
VALPARAISO     CLEAR     82  69  64 SE7       29.91S

$$

LMZ046-743>745-210200-
SOUTHERN LAKE MICHIGAN

STATION/POSITION TIME  TEMP    WIND        PRES    WAVE
                       AIR SEA DIR/SP/G            HT
                 (UTC) (F)     (DEG/KT/KT) (MB)    (FT)
BURNS HARBOR     0100   83     170/  8/ 14 1012.2
MICHIGAN CITY    0040   82     140/  7/  8   N/A
5NW MICH CITY    0100   76 70  160/  8/  8   N/A     1

$$

INZ004-005-014>016-021>024-210200-
NORTH CENTRAL INDIANA

CITY           SKY/WX    TMP DP  RH WIND       PRES   REMARKS
ELKHART        CLEAR     77  68  73 CALM      29.94S
GOSHEN         CLEAR     77  68  73 SE7       29.94S
LOGANSPORT +   CLEAR     73  66  78 SE5       29.95R
PERU/GRISSOM   CLEAR     76  69  80 S7        29.94S
ROCHESTER +    CLEAR     81  72  74 S5        29.94
SOUTH BEND     CLEAR     79  68  69 S8        29.93S
WARSAW +       CLEAR     73  68  83 CALM      29.95R

$$

INZ006>009-017-018-025>027-210200-
NORTHEAST INDIANA

CITY           SKY/WX    TMP DP  RH WIND       PRES   REMARKS
AUBURN +       CLEAR     72  68  88 CALM      29.98R
FORT WAYNE     CLEAR     75  67  76 SE6       29.98R
HUNTINGTON +   CLEAR     76  68  75 S3        29.96S
KENDALLVILLE + CLEAR     73  68  85 SE5       29.98R

$$

INZ028-029-035-036-043>045-051>053-210200-
WEST CENTRAL INDIANA

CITY           SKY/WX    TMP DP  RH WIND       PRES   REMARKS
GREENCASTLE +  CLEAR     73  66  78 CALM      29.98R
LAFAYETTE      CLEAR     80  68  66 S3        29.93R
TERRE HAUTE    CLEAR     78  66  66 SE6       29.94S

$$

INZ030>032-037>040-046>048-054>057-064-065-210200-
CENTRAL INDIANA

CITY           SKY/WX    TMP DP  RH WIND       PRES   REMARKS
CP ATTERBURY + CLEAR     73  70  88 CALM      30.00R
COLUMBUS       CLEAR     77  68  73 SE6       29.99R
FISHERS *+     CLEAR     75  72  88 S7        29.97S
FRANKFORT +    MOCLDY    78  70  77 CALM      29.97S
INDIANAPOLIS   PTCLDY    81  69  67 S8        29.97S
-EAGLE CREEK   CLEAR     82  68  62 S3        29.97R
KOKOMO +       CLEAR     75  69  81 SE8       29.96F
MT COMFORT *+    N/A    N/A N/A N/A MISG        N/A
SHELBYVILLE    CLEAR     76  69  79 SE7       29.99R
ZIONSVILLE +   CLEAR     73  68  84 S5        29.98S

$$

INZ033-034-041-042-049-050-058-059-210200-
EAST CENTRAL INDIANA

CITY           SKY/WX    TMP DP  RH WIND       PRES   REMARKS
MUNCIE         CLEAR     80  69  69 S7        29.99R
RICHMOND +     CLEAR     68  68 100 S6        30.04R

$$

INZ060-061-067>069-081>083-085>088-210200-
SOUTHWEST INDIANA

CITY           SKY/WX    TMP DP  RH WIND       PRES   REMARKS
EVANSVILLE     CLEAR     78  70  76 CALM      29.97R
HUNTINGBURG +  CLEAR     79  72  79 SE5       29.98R
WASHINGTON +   CLEAR     77  67  71 S5        29.96R

$$

INZ062-063-066-070>080-084-089>092-210200-
SOUTH CENTRAL AND SOUTHEAST INDIANA

CITY           SKY/WX    TMP DP  RH WIND       PRES   REMARKS
BEDFORD +      CLEAR     79  68  69 S3        29.99
BLOOMINGTON    CLEAR     79  69  71 S5        29.99R
MADISON *+     CLEAR     72  70  94 CALM      30.03R
NORTH VERNON + CLEAR     73  70  88 SE3       30.01R
SEYMOUR +      CLEAR     77  70  78 SE5       29.99R

$$





USA.gov is the U.S. government's official web portal to all federal, state and local government web resources and services.